Location: Piotrkow Trybunalski
(51.4000°N, 19.6830°E)
Time: 22:21:11
(UTC+01:00)

ISS - Pass Details

Date: 04 February 2020
Orbit: 415 x 423 km, 51.6° (Epoch: 25 February)

Event Time Altitude Azimuth Distance (km) Brightness Sun altitude
Rises 17:44:02 0° 284° (WNW) 2,382 1.4 -10.9°
Reaches altitude 10° 17:46:10 10° 279° (W) 1,514 0.3 -11.2°
Maximum altitude 17:49:29 52° 202° (SSW) 532 -3.0 -11.8°
Enters shadow 17:52:35 11° 126° (SE) 1,426 -1.5 -12.2°
